Back to catalog

SCOUT A R/B

AlivePO
NORAD 1865·ROCKET BODY·🇺🇸 United States

Launched Dec 22, 1965 from Vandenberg Space Force Base

Loading…

Next Passes (next 24 hours)

TLE

FreshSource: Space-Track

Epoch: Sep 14, 2026, 08:10 UTC

1 01865U 65109B   26257.34068685  .00000107  00000-0  90054-4 0  9993
2 01865  89.0695 240.2891 0113728  76.3104 285.0693 13.76848662 45900

Track SCOUT A R/B in real time with AllMySat

Download on the App Store